www.pogodaiklimat.ru

Погода и климат >> Архив погоды >> Мьянма >> Виктория-Пойнт


ПОГОДА в Виктория-Пойнт

  • Прогноз погоды в Виктория-Пойнт
  • Монитор погоды в Виктория-Пойнт

АРХИВ ПОГОДЫ в Виктория-Пойнт

Время (UTC), дата Ветер
(напр.,м/с)
 
Видим.   Явления Облачность Т
(С)
Тd
(С)
f
(%)
Тe
(С)
Тes
(С)
Комфортность P
(гПа)
Po
(гПа)
Тmin
(С)
Tmax
(С)
R
(мм)
R24
(мм)
S
(см)
15 18.08 СЗ 2 10 км 10/4 600 м
[Cu Sc Ac As Cs]
+27.5 +26.2 93 +42 +42 опасность
перегрева
1010.6 1005.2
00 19.08 З 1 20 км 8/3 600 м
[Cu med, cong As trans Cs]
+25.5 +24.0 91 +35 +35 очень
душно
1010.1 1004.7 +18.5
03 19.08 З 2 20 км 8/3 600 м
[Cu med, cong As trans Cs]
+29.0 +24.8 78 +41 +48 опасность
перегрева
1011.6 1006.2
06 19.08 З 3 20 км 8/3 600 м
[Cu med, cong As trans Cs]
+31.0 +23.7 65 +42 +50 опасность
перегрева
1010.8 1005.5
09 19.08 З 3 20 км 8/3 600 м
[Cu med, cong As trans Cs]
+32.0 +24.8 66 +45 +48 опасность
перегрева
1009.1 1003.8
12 19.08 З 2 10 км в посл. час дождь {морось} 10/5 600 м
[Cu Sc Ac As Cs]
+29.0 +24.8 78 +41 +41 опасность
перегрева
1009.3 1003.9 +32.2 0.0
15 19.08 ЮЗ 2 10 км 10/5 600 м
[Cu Sc Ac As Cs]
+28.0 +25.0 84 +40 +40 очень
душно
1010.6 1005.2
00 20.08 ЮЗ 1 20 км 8/3 600 м
[Cu med, cong As trans Cs]
+26.0 +24.6 92 +37 +37 очень
душно
1008.9 1003.5 +19.5
03 20.08 ЮЗ 2 10 км 10/4 600 м
[Cu Sc Ac As Cs]
+30.0 +25.3 76 +44 +48 опасность
перегрева
1009.9 1004.6
06 20.08 З 3 20 км 8/3 600 м
[Cu med, cong As trans Cs]
+31.0 +26.7 78 +48 +56 опасность
перегрева
1009.6 1004.3
09 20.08 ЮЗ 3 10 км 10/4 600 м
[Cu Sc Ac As Cs]
+31.5 +25.9 72 +47 +49 опасность
перегрева
1007.3 1002.0
12 20.08 З 3 10 км 10/4 600 м
[Cu Sc Ac As Cs]
+29.0 +24.8 78 +41 +41 опасность
перегрева
1007.3 1002.0 +31.7
15 20.08 З 3 10 км 10/4 600 м
[Cu Sc Ac As Cs]
+28.0 +25.0 84 +40 +40 очень
душно
1008.6 1003.2
00 21.08 ЮЗ 1 4000 м в посл. час дождь {морось} 10/8 300 м
[Frnb Ac As]
+25.0 +23.3 90 +33 +33 очень
душно
1008.6 1003.2 +17.5 28
03 21.08 З 2 10 км 10/5 600 м
[Cu Sc Ac As Cs]
+26.5 +25.1 92 +38 +42 очень
душно
1010.1 1004.7
06 21.08 З 2 10 км 10/5 600 м
[Cu Sc Ac As Cs]
+29.0 +25.9 83 +43 +49 опасность
перегрева
1009.4 1004.0
09 21.08 ЮВ 3 4000 м слаб. морось 10/8 300 м
[Frnb Ac As]
+25.5 +25.5 100 +37 +37 очень
душно
1008.4 1003.0
12 21.08 ЮЗ 5 4000 м слаб. морось 10/8 300 м
[Frnb Ac As]
+24.0 +24.0 100 +33 +33 очень
душно
1008.4 1003.0 +29.2 19
15 21.08 ЮВ 3 4000 м {морось} 10/8 300 м
[Frnb Ac As]
+24.0 +24.0 100 +33 +33 очень
душно
1010.6 1005.2
00 22.08 Ю 2 4000 м {морось} 10/8 300 м
[Frnb Ac As]
+25.5 +24.0 91 +35 +35 очень
душно
1009.8 1004.4 +17.5 5
03 22.08 З 2 4000 м слаб. морось 10/8 300 м
[Frnb Ac As]
+25.0 +25.0 100 +36 +36 очень
душно
1011.3 1005.9
06 22.08 З 3 10 км {морось} 10/5 600 м
[Cu Sc Ac As Cs]
+28.5 +25.4 83 +42 +46 опасность
перегрева
1010.6 1005.2
09 22.08 СЗ 3 4000 м слаб. морось 10/8 300 м
[Frnb Ac As]
+26.5 +26.5 100 +40 +41 очень
душно
1008.9 1003.5
12 22.08 ЮЗ 3 4000 м {морось} 10/8 300 м
[Frnb Ac As]
+27.0 +27.0 100 +42 +42 опасность
перегрева
1007.9 1002.5 +28.7 4
15 22.08 ЮЗ 3 10 км 10/5 600 м
[Cu Sc Ac As Cs]
+26.0 +24.6 92 +37 +37 очень
душно
1009.9 1004.5
00 23.08 Ю 1 10 км {морось} 10/4 600 м
[Cu Sc Ac As Cs]
+25.5 +25.5 100 +37 +37 очень
душно
1009.6 1004.2 +18.5 2
03 23.08 Ю 2 10 км 10/4 600 м
[Cu Sc Ac As Cs]
+28.5 +26.3 88 +43 +48 опасность
перегрева
1012.1 1006.7
06 23.08 З 3 10 км в посл. час дождь {морось} 10/5 600 м
[Cu Sc Ac As Cs]
+28.0 +25.0 84 +40 +45 очень
душно
1011.9 1006.5
09 23.08 ЮЗ 2 10 км 10/4 600 м
[Cu Sc Ac As Cs]
+29.0 +24.8 78 +41 +44 опасность
перегрева
1009.8 1004.4
12 23.08 ЮЗ 3 10 км слаб. морось 10/5 600 м
[Cu Sc Ac As Cs]
+28.0 +25.0 84 +40 +40 очень
душно
1009.6 1004.2 +29.2 1
15 23.08 З 2 4000 м слаб. морось 10/8 300 м
[Frnb Ac As]
+25.0 +25.0 100 +36 +36 очень
душно
1011.9 1006.5
00 24.08 ЮЗ 2 4000 м слаб. морось 10/8 300 м
[Frnb Ac As]
+24.0 +24.0 100 +33 +33 очень
душно
1010.8 1005.4 +17.3 43
03 24.08 СЗ 2 4000 м слаб. морось 10/8 300 м
[Frnb Ac As]
+25.0 +25.0 100 +36 +36 очень
душно
1011.3 1005.9
06 24.08 З 2 10 км {морось} 10/5 600 м
[Cu Sc Ac As Cs]
+27.0 +25.6 92 +40 +45 очень
душно
1010.1 1004.7
09 24.08 СЗ 5 4000 м в посл. час дождь {морось} 10/8 300 м
[Frnb Ac As]
+25.5 +25.5 100 +37 +37 очень
душно
1009.1 1003.7
12 24.08 ЮЗ 3 4000 м слаб. морось 10/8 300 м
[Frnb Ac As]
+25.0 +25.0 100 +36 +36 очень
душно
1009.1 1003.7 +27.2 11
00 25.08 З 2 4000 м слаб. морось {дождь} 10/8 300 м
[Frnb Ac As]
+24.0 +24.0 100 +33 +33 очень
душно
1010.5 1005.1 +17.0 43
03 25.08 З 5 4000 м слаб. морось 10/8 300 м
[Frnb Ac As]
+24.5 +24.5 100 +34 +35 очень
душно
1011.8 1006.4
06 25.08 З 5 4000 м слаб. морось 10/8 300 м
[Frnb Ac As]
+23.5 +23.5 100 +32 +32 очень
душно
1012.3 1006.8
09 25.08 З 2 4000 м в посл. час дождь {морось} 10/8 300 м
[Frnb Ac As]
+25.0 +23.3 90 +33 +34 очень
душно
1009.3 1003.9
12 25.08 З 2 10 км 10/5 600 м
[Cu Sc Ac As Cs]
+25.0 +23.3 90 +33 +33 очень
душно
1008.8 1003.4 +25.2 22

 

Местоположение метеостанции Виктория-Пойнт (Мьянма): широта 9.97 долгота 98.58 высота над уровнем моря 47 м.

В архиве по умолчанию представлена погода в Виктория-Пойнт за последнюю неделю. Архивные данные за месяц целиком и за предыдущие месяцы, начиная с января 2011 года, Вы можете получить, выбрав интересующий диапазон дат из раскрывающегося списка и нажав кнопку "Ввод!".


*Определитесь, кто Вы:
робот инопланетянин человек

Внимание! Время в таблицах - всемирное. Для получения местного времени необходимо прибавить поправку, которая равна 6.5 ч.

Смотрите также архив погоды в соседних городах и на ближайших метеорологических станциях:

Погода в Ранонге (Таиланд) (5 км)
Погода в Сави Агромете (Таиланд) (70 км)
Погода в Чумпхоне (Таиланд) (87 км)
Погода в Сураттхани (Таиланд) (113 км)
Погода в Такуа Па (Таиланд) (148 км)
Погода в Сураттхани Агромете (Таиланд) (150 км)
Погода в Самуи (Таиланд) (170 км)
Погода в Прасанге (Таиланд) (172 км)
Погода в Чаванге (Таиланд) (199 км)
Погода в Хуайсае (Лаос) (206 км)

Пояснения к столбцам:

Ветер - указаны скорость ветра в м/с - средняя за 10 мин, порывы в срок и между сроками (в фигурных скобках) и направление, откуда дует ветер: С - северный, СВ - северо-восточный, В - восточный, ЮВ - юго-восточный, Ю - южный, ЮЗ - юго-западный, З - западный, СЗ - северо-западный.
Видимость - горизонтальная дальность видимости в метрах или километрах. При видимости от 1 до 10 км при отсутствии осадков обычно наблюдается дымка, при ухудшении видимости до 1 км и менее - туман. В сухую погоду видимость может ухудшаться дымом, пылью или мглою.
Явления - указаны атмосферные явления, наблюдавшиеся в срок или в последний час перед сроком; фигурными скобками обозначены явления, наблюдавшиеся между сроками (за 1-3 часа до срока); квадратными скобками обозначены град или гололедные отложения с указанием их диаметра в мм.
Облачность - указаны через наклонную черту общая и нижняя облачность в баллах и высота нижней границы облаков в метрах; квадратными скобками обозначены формы облаков: Ci - перистые, Cs - перисто-слоистые, Cc - перисто-кучевые, Ac - высококучевые, As - высокослоистые, Sc - слоисто-кучевые, Ns - слоисто-дождевые, Cu - кучевые, Cb - кучево-дождевые. Подробнее классификацию облаков см. в Атласе облаков (PDF).
T - Температура воздуха - температура, измеренная на высоте 2 м над землей.
Td - Температура точки росы - температура, при понижении до которой содержащийся в воздухе водяной пар достигнет насыщения.
f - Относительная влажность воздуха - влажноcть воздуха, измеренная на высоте 2 м над землей.
Te - Эффективная температура - температура, которую ощущает одетый по сезону человек в тени. Характеристика душности погоды. При расчете учитывается влияние влажности воздуха и скорости ветра на теплоощущения человека.
Tes - Эффективная температура на солнце - температура, которую ощущает человек, с поправкой на солнечный нагрев. Характеристика знойности погоды. Зависит от высоты солнца над горизонтом, облачности и скорости ветра. Ночью, в пасмурную погоду, а также при ветре 12 м/с и более поправка равна нулю.
P - Атмосферное давление - приведенное к уровню моря атмосферное давление.
Po - Атмосферное давление - измеренное на уровне метеостанции атмосферное давление.
Tmin - Минимальная температура - минимум температуры воздуха на высоте 2 м над землей.
Tmax - Максимальная температура - максимум температуры воздуха на высоте 2 м над землей.
R - Количество осадков - Количество выпавших осадков за период времени, мм. При наведении курсора мыши на число - период времени, за который выпало указанное количество осадков.
R24 - Количество осадков - Количество выпавших осадков за 24 часа, мм.
S - Снежный покров - Высота снежного покрова, см. При наведении курсора мыши на число - состояние снежного покрова и степень покрытия местности в баллах.